EN

Hourly Weather Labiszynek

Today, 24 July, Saturday

Time Temperature Precipitation Wind Pressure Humidity
00:00 +20°C° 0 mm 1 mps 752 mmHg 69%
01:00 +20°C° 0 mm 1 mps 752 mmHg 70%
02:00 +20°C° 0 mm 1 mps 752 mmHg 70%
03:00 +20°C° 0 mm 1 mps 752 mmHg 71%
04:00 +18°C° 0 mm 2 mps 752 mmHg 71%
05:00 +19°C° 0 mm 2 mps 752 mmHg 71%
06:00 +19°C° 0 mm 2 mps 752 mmHg 72%
07:00 +20°C° 0 mm 2 mps 752 mmHg 72%
08:00 +21°C° 0 mm 2 mps 752 mmHg 69%
09:00 +23°C° 0 mm 2 mps 752 mmHg 66%
10:00 +23°C° 0 mm 2 mps 752 mmHg 63%
11:00 +25°C° 0 mm 2 mps 752 mmHg 57%
12:00 +26°C° 0 mm 2 mps 752 mmHg 51%
13:00 +27°C° 0 mm 3 mps 752 mmHg 45%
14:00 +27°C° 0 mm 2 mps 751 mmHg 45%
15:00 +27°C° 0 mm 2 mps 751 mmHg 46%
16:00 +27°C° 0 mm 2 mps 751 mmHg 46%
17:00 +26°C° 0 mm 3 mps 751 mmHg 52%
18:00 +24°C° 0 mm 3 mps 751 mmHg 58%
19:00 +22°C° 0 mm 3 mps 751 mmHg 64%
20:00 +22°C° 0 mm 3 mps 751 mmHg 64%
21:00 +21°C° 0 mm 3 mps 751 mmHg 64%
22:00 +20°C° 0 mm 3 mps 751 mmHg 64%
23:00 +20°C° 0 mm 3 mps 751 mmHg 66%

Tomorrow, 25 July, Sunday

Time Temperature Precipitation Wind Pressure Humidity
00:00 +19°C° 0 mm 3 mps 751 mmHg 69%
01:00 +18°C° 0 mm 3 mps 751 mmHg 71%
02:00 +18°C° 0 mm 3 mps 751 mmHg 72%
03:00 +18°C° 0 mm 3 mps 750 mmHg 73%
04:00 +18°C° 0 mm 3 mps 750 mmHg 74%
05:00 +19°C° 0 mm 3 mps 750 mmHg 71%
06:00 +20°C° 0 mm 3 mps 750 mmHg 69%
07:00 +22°C° 0 mm 4 mps 750 mmHg 66%
08:00 +23°C° 0 mm 4 mps 750 mmHg 61%
09:00 +26°C° 0 mm 4 mps 750 mmHg 56%
10:00 +28°C° 0 mm 5 mps 750 mmHg 51%
11:00 +29°C° 0 mm 5 mps 750 mmHg 48%
12:00 +29°C° 0 mm 5 mps 750 mmHg 46%
13:00 +30°C° 0 mm 5 mps 750 mmHg 44%
14:00 +30°C° 0 mm 4 mps 750 mmHg 45%
15:00 +29°C° 0 mm 4 mps 750 mmHg 47%
16:00 +29°C° 0 mm 3 mps 749 mmHg 48%
17:00 +27°C° 0.1 mm 3 mps 750 mmHg 57%
18:00 +25°C° 0.1 mm 3 mps 750 mmHg 67%
19:00 +22°C° 0.1 mm 3 mps 750 mmHg 76%
20:00 +21°C° 0.1 mm 3 mps 750 mmHg 78%
21:00 +21°C° 0.1 mm 2 mps 750 mmHg 79%
22:00 +20°C° 0.1 mm 2 mps 750 mmHg 81%
23:00 +20°C° 0.3 mm 3 mps 749 mmHg 84%

Day after tomorrow, 26 July, Monday

Time Temperature Precipitation Wind Pressure Humidity
00:00 +20°C° 0.3 mm 3 mps 749 mmHg 86%
01:00 +19°C° 0.3 mm 4 mps 749 mmHg 89%
02:00 +19°C° 0 mm 4 mps 749 mmHg 88%
03:00 +20°C° 0 mm 4 mps 748 mmHg 86%
04:00 +20°C° 0 mm 4 mps 748 mmHg 85%
05:00 +20°C° 0 mm 4 mps 748 mmHg 81%
06:00 +21°C° 0 mm 4 mps 748 mmHg 77%
07:00 +22°C° 0 mm 3 mps 748 mmHg 74%
08:00 +24°C° 0 mm 3 mps 748 mmHg 69%
09:00 +26°C° 0 mm 3 mps 748 mmHg 64%
10:00 +27°C° 0 mm 2 mps 748 mmHg 58%
11:00 +28°C° 0 mm 2 mps 748 mmHg 56%
12:00 +29°C° 0 mm 3 mps 748 mmHg 54%
13:00 +30°C° 0 mm 3 mps 748 mmHg 52%
14:00 +30°C° 0 mm 3 mps 748 mmHg 51%
15:00 +30°C° 0 mm 3 mps 748 mmHg 51%
16:00 +30°C° 0 mm 3 mps 748 mmHg 51%
17:00 +29°C° 0 mm 2 mps 748 mmHg 54%
18:00 +28°C° 0 mm 2 mps 748 mmHg 58%
19:00 +27°C° 0 mm 1 mps 748 mmHg 62%
20:00 +26°C° 0 mm 1 mps 748 mmHg 65%
21:00 +25°C° 0 mm 2 mps 749 mmHg 67%
22:00 +24°C° 0 mm 2 mps 749 mmHg 70%
23:00 +23°C° 0 mm 2 mps 749 mmHg 73%

27 July, Tuesday

Time Temperature Precipitation Wind Pressure Humidity
00:00 +23°C° 0 mm 2 mps 749 mmHg 76%
01:00 +21°C° 0 mm 2 mps 749 mmHg 78%
02:00 +21°C° 0.1 mm 2 mps 749 mmHg 80%
03:00 +20°C° 0.1 mm 2 mps 749 mmHg 83%
04:00 +20°C° 0.1 mm 2 mps 749 mmHg 85%
05:00 +21°C° 0 mm 2 mps 750 mmHg 82%
06:00 +21°C° 0 mm 2 mps 750 mmHg 80%
07:00 +23°C° 0 mm 2 mps 750 mmHg 77%
08:00 +25°C° 0 mm 2 mps 750 mmHg 70%
09:00 +27°C° 0 mm 2 mps 750 mmHg 63%
10:00 +28°C° 0 mm 2 mps 750 mmHg 55%
11:00 +29°C° 0 mm 2 mps 750 mmHg 52%
12:00 +30°C° 0 mm 2 mps 750 mmHg 48%
13:00 +31°C° 0 mm 2 mps 750 mmHg 45%
14:00 +30°C° 0 mm 2 mps 750 mmHg 47%
15:00 +30°C° 0 mm 2 mps 750 mmHg 49%
16:00 +29°C° 0 mm 2 mps 749 mmHg 51%
17:00 +27°C° 0.8 mm 3 mps 749 mmHg 60%
18:00 +23°C° 0.8 mm 4 mps 749 mmHg 69%
19:00 +21°C° 0.8 mm 5 mps 749 mmHg 78%
20:00 +21°C° 0.2 mm 4 mps 749 mmHg 78%
21:00 +21°C° 0.2 mm 3 mps 749 mmHg 78%
22:00 +20°C° 0.2 mm 2 mps 749 mmHg 78%
23:00 +20°C° 0.1 mm 2 mps 749 mmHg 79%

28 July, Wednesday

Time Temperature Precipitation Wind Pressure Humidity
00:00 +20°C° 0.1 mm 2 mps 749 mmHg 81%
01:00 +20°C° 0.1 mm 2 mps 749 mmHg 83%
02:00 +20°C° 0.2 mm 2 mps 749 mmHg 85%
03:00 +20°C° 0.2 mm 2 mps 749 mmHg 88%
04:00 +19°C° 0.2 mm 3 mps 749 mmHg 90%
05:00 +20°C° 0.1 mm 3 mps 749 mmHg 86%
06:00 +21°C° 0.1 mm 3 mps 749 mmHg 82%
07:00 +21°C° 0.1 mm 3 mps 749 mmHg 78%
08:00 +22°C° 0.1 mm 4 mps 749 mmHg 76%
09:00 +22°C° 0.1 mm 4 mps 749 mmHg 74%
10:00 +23°C° 0.1 mm 4 mps 750 mmHg 72%
11:00 +25°C° 0.2 mm 4 mps 750 mmHg 66%
12:00 +26°C° 0.2 mm 4 mps 750 mmHg 59%
13:00 +27°C° 0.2 mm 4 mps 750 mmHg 53%
14:00 +27°C° 0.1 mm 4 mps 750 mmHg 53%
15:00 +27°C° 0.1 mm 4 mps 750 mmHg 53%
16:00 +26°C° 0.1 mm 4 mps 749 mmHg 53%
17:00 +26°C° 0 mm 4 mps 750 mmHg 56%
18:00 +25°C° 0 mm 3 mps 750 mmHg 59%
19:00 +24°C° 0 mm 3 mps 750 mmHg 62%
20:00 +22°C° 0 mm 3 mps 750 mmHg 63%
21:00 +23°C° 0 mm 2 mps 750 mmHg 64%
22:00 +21°C° 0 mm 2 mps 751 mmHg 65%
23:00 +20°C° 0 mm 2 mps 751 mmHg 67%

29 July, Thursday

Time Temperature Precipitation Wind Pressure Humidity
00:00 +20°C° 0 mm 2 mps 751 mmHg 69%
01:00 +19°C° 0 mm 2 mps 751 mmHg 71%
02:00 +19°C° 0 mm 2 mps 751 mmHg 72%
03:00 +18°C° 0 mm 2 mps 751 mmHg 74%
04:00 +18°C° 0 mm 2 mps 751 mmHg 76%
05:00 +19°C° 0 mm 2 mps 751 mmHg 72%
06:00 +20°C° 0 mm 2 mps 752 mmHg 69%
07:00 +22°C° 0 mm 3 mps 752 mmHg 65%
08:00 +24°C° 0 mm 3 mps 752 mmHg 60%
09:00 +25°C° 0 mm 3 mps 752 mmHg 55%
10:00 +27°C° 0 mm 3 mps 752 mmHg 50%
11:00 +27°C° 0 mm 3 mps 751 mmHg 48%
12:00 +28°C° 0 mm 3 mps 751 mmHg 47%
13:00 +28°C° 0 mm 4 mps 751 mmHg 45%
14:00 +28°C° 0 mm 3 mps 751 mmHg 47%
15:00 +28°C° 0 mm 2 mps 751 mmHg 49%
16:00 +28°C° 0 mm 2 mps 750 mmHg 51%
17:00 +27°C° 0 mm 2 mps 750 mmHg 54%
18:00 +26°C° 0 mm 2 mps 750 mmHg 58%
19:00 +25°C° 0 mm 2 mps 750 mmHg 62%
20:00 +24°C° 0 mm 1 mps 750 mmHg 63%
21:00 +24°C° 0 mm 1 mps 750 mmHg 63%
22:00 +24°C° 0 mm 1 mps 750 mmHg 63%
23:00 +23°C° 0 mm 1 mps 749 mmHg 66%
Show more